Dewpoint
75 74 73 73 72 74 71 68 54 59 56 50 54 56 56 61 60 58 57 58 57 57 61 58 58 57 59 56 58 62 62 58 60 54 52 64 70 71 73 73 74 74 74 75 75 75 75 76 76 76 76 76 75 76 75 76 76 76 74 75 75 75 75 75 75 75 75 75 75 75 75 75 75 75 75 75 75 75 75 75 75 75 75 75 75 75 75 75 76 76 75 75 75 75 75 75 75
74 72 71 71 72 70 64 66 56 56 55 52 54 57 57 58 59 56 55 58 54 53 56 57 59 60 61 61 61 60 61 65 65 65 68 70 70 72 73 74 74 74 74 74 75 74 75 76 76 76 76 76 76 76 75 76 76 76 75 75 75 75 75 75 75 75 75 75 75 75 75 76 76 76 76 75 75 74 74 75 75 76 75 75 75 75 76 76 76 76 76 76 75 75 75 75 74
70 71 72 74 73 69 67 64 53 52 50 47 53 56 58 57 57 57 58 60 53 54 56 57 58 59 59 59 59 60 58 66 66 67 68 70 69 71 73 73 74 74 74 75 75 75 75 76 76 76 76 75 75 76 76 76 75 75 75 75 75 75 75 75 75 75 75 74 75 75 75 76 76 76 76 75 75 75 74 75 75 76 76 75 75 75 75 75 75 76 76 76 76 76 75 75 75
71 70 72 71 66 68 60 58 56 55 51 50 52 58 55 56 57 57 60 55 57 59 56 57 59 60 59 59 61 63 63 63 66 67 67 69 69 71 72 74 75 74 74 75 75 75 75 75 76 75 75 75 75 75 76 76 76 76 75 75 75 75 75 75 75 75 74 75 75 75 75 75 75 75 74 74 74 75 74 74 75 75 75 75 75 75 75 75 75 76 76 76 76 76 76 76 75
72 76 74 70 65 61 59 57 56 56 52 53 50 54 55 55 55 56 57 55 55 56 57 58 58 60 62 61 63 61 62 65 66 68 68 69 70 71 73 74 73 73 74 74 75 75 75 76 76 76 75 75 75 75 76 76 76 75 75 75 75 75 75 75 75 75 75 75 75 75 75 74 74 74 75 75 74 75 75 74 74 74 74 75 75 75 75 75 75 76 76 76 76 76 76 76 76
72 73 75 71 64 66 60 55 56 55 54 59 54 51 54 54 56 53 54 56 57 57 56 57 57 57 58 60 61 63 64 62 66 67 68 69 70 72 72 73 72 73 73 74 74 75 75 75 76 76 76 76 75 76 76 76 77 76 76 76 76 75 75 75 75 75 75 75 75 74 74 74 74 74 74 75 75 74 74 75 74 74 74 75 75 75 75 75 76 76 76 75 75 75 75 75 75
72 69 69 68 66 66 55 55 56 56 56 59 57 55 54 56 56 54 55 55 57 57 58 57 59 59 58 61 62 64 66 66 67 67 69 70 71 70 71 71 72 72 73 74 74 75 76 76 75 75 75 76 76 75 75 76 76 76 75 75 77 75 75 75 75 75 75 75 74 74 75 74 74 74 74 75 74 74 74 75 74 74 74 75 75 75 75 75 76 75 75 75 75 75 75 75 75
74 64 65 61 58 59 55 54 57 59 58 61 59 57 58 58 59 57 55 56 54 55 57 57 57 58 59 62 61 65 66 68 69 70 70 70 70 71 71 72 72 73 74 74 75 76 76 76 76 76 76 76 75 75 75 75 75 75 75 75 76 76 75 75 75 75 75 75 75 75 75 75 75 75 75 75 74 74 74 74 74 74 74 74 75 75 75 75 75 75 75 75 75 75 75 75 75
72 68 68 59 55 57 55 54 58 61 58 59 57 61 64 60 59 55 55 56 56 56 56 57 59 58 60 62 63 65 67 69 70 71 70 71 71 71 71 72 72 73 74 75 75 76 76 76 76 76 75 75 75 75 75 75 75 75 76 75 76 76 75 75 75 75 75 74 74 74 75 75 75 75 75 75 75 75 75 75 74 74 74 74 75 75 75 75 75 75 75 75 75 75 75 75 75
68 65 59 58 57 53 54 55 56 61 60 60 59 60 60 61 59 57 54 55 56 56 57 59 59 59 61 60 62 64 67 69 69 70 71 71 71 71 71 72 72 73 73 74 75 76 76 76 76 76 76 75 75 75 75 75 75 75 75 76 76 76 75 75 75 75 75 75 75 74 75 75 75 75 76 76 75 75 75 74 74 74 74 74 75 75 75 75 75 75 75 75 75 75 75 75 75
60 65 64 55 52 51 52 56 59 60 60 58 57 61 63 61 61 57 58 56 58 56 58 60 60 60 61 61 63 66 68 68 68 69 71 71 71 71 71 72 72 73 74 75 75 75 75 75 76 75 75 75 75 75 75 75 75 75 75 76 76 75 76 75 75 75 76 75 75 75 75 75 75 75 75 76 75 75 75 75 74 74 74 74 74 75 75 75 75 75 75 75 76 75 76 76 76
59 59 59 53 52 51 53 56 58 60 62 60 57 61 61 62 61 56 56 55 56 56 57 58 58 61 60 61 63 66 67 67 68 69 70 70 70 71 71 72 72 73 74 75 75 75 75 75 75 75 75 75 75 75 75 75 75 75 75 75 75 75 75 75 75 75 76 76 76 76 75 75 75 75 76 76 76 75 75 75 75 75 75 75 75 75 75 75 75 75 75 76 75 76 76 76 76
60 60 57 54 53 55 56 57 58 60 60 60 59 61 62 62 60 58 58 57 57 56 57 58 59 59 58 61 64 65 66 67 68 69 70 70 70 71 71 71 72 73 74 75 74 74 75 74 74 74 75 75 75 75 75 75 74 75 75 75 75 75 75 75 75 75 75 76 76 76 75 75 75 75 76 75 75 75 75 75 75 74 75 75 75 75 75 75 75 75 76 76 76 75 76 76 76
61 61 57 52 57 55 54 57 57 57 57 59 60 63 63 62 62 62 58 57 56 57 57 58 57 59 60 62 63 64 65 67 68 69 69 70 71 70 70 71 72 73 74 74 74 74 74 74 74 74 74 74 74 75 75 75 75 75 75 75 75 75 75 75 75 75 75 76 76 77 76 76 76 75 75 75 75 75 75 75 75 75 75 75 75 75 75 74 75 75 76 76 76 76 76 77 77
62 64 59 55 54 56 57 56 58 58 58 62 62 63 62 65 65 65 60 56 58 56 57 58 58 57 57 61 62 63 65 66 68 69 69 70 70 70 70 71 71 72 73 73 73 73 73 74 74 74 74 74 74 74 74 74 75 75 75 74 75 75 75 75 75 75 76 76 76 77 76 76 76 75 75 75 75 75 75 75 75 75 75 75 75 75 74 75 75 75 75 76 76 77 77 77 78
65 63 58 54 53 55 57 56 58 58 59 62 64 65 62 62 65 64 63 63 55 55 56 55 58 58 58 60 62 64 65 66 67 68 68 69 69 69 69 70 71 71 72 73 73 73 73 73 74 74 74 74 74 74 74 74 75 75 75 75 75 74 74 75 75 74 76 76 76 76 76 76 76 75 75 75 75 75 75 76 75 75 75 75 75 74 75 75 75 75 76 77 77 77 78 78 78
66 62 55 54 53 55 57 58 59 55 61 62 65 64 60 59 64 66 67 67 54 54 54 56 55 58 58 58 63 64 65 67 68 67 67 67 67 67 69 70 70 70 72 72 73 73 73 73 74 74 74 74 74 74 74 74 75 75 75 75 74 74 74 74 74 74 75 75 75 75 75 76 75 75 75 75 75 76 75 75 75 76 76 75 75 75 75 75 75 76 77 77 78 78 78 78 78
62 56 54 53 55 56 59 59 60 62 60 62 64 64 63 59 62 64 66 62 58 54 54 55 58 58 59 63 65 65 66 66 66 66 66 65 66 66 67 69 69 70 71 71 72 72 73 73 73 74 74 74 74 75 74 75 75 75 74 74 74 74 74 74 74 74 75 74 75 75 74 75 75 74 75 75 75 76 76 76 76 75 76 76 76 76 76 76 76 77 77 77 78 78 78 77 77
59 57 56 53 59 59 62 62 61 62 62 64 64 65 64 63 64 65 61 59 54 51 52 56 57 58 61 64 65 65 65 65 65 65 64 64 65 66 67 69 69 70 70 71 72 72 73 73 74 74 73 74 74 74 74 75 74 74 74 74 74 74 74 75 74 75 73 73 74 73 74 75 75 76 76 77 77 77 77 77 76 75 76 76 76 76 76 76 77 77 77 77 78 78 77 75 76
60 56 54 58 61 62 63 64 64 65 65 64 64 65 65 65 65 67 62 58 54 53 54 56 57 59 60 62 64 64 64 64 64 64 63 64 65 66 67 69 69 70 70 71 72 73 73 73 73 73 73 74 74 74 74 74 74 74 74 74 74 74 74 74 74 74 73 73 74 73 74 75 75 74 77 76 76 77 76 76 75 74 75 75 75 76 77 77 77 77 78 78 80 79 77 76 76
59 58 56 57 61 61 63 65 65 66 66 64 64 65 64 65 65 65 63 56 58 58 56 56 58 60 61 62 63 63 63 63 64 63 63 65 66 67 68 69 70 70 71 72 73 72 73 73 73 73 74 73 73 74 74 74 74 74 74 74 73 73 73 73 74 74 74 74 73 74 74 75 75 74 74 75 74 74 73 73 73 73 73 73 77 74 74 74 76 75 75 77 77 77 77 76 75
56 57 59 59 61 63 64 66 66 65 66 65 64 64 64 65 67 65 63 55 57 59 61 57 59 60 61 62 62 63 62 63 62 62 64 65 66 67 69 69 70 71 72 72 72 72 72 73 73 73 73 73 73 73 73 74 74 73 73 73 73 73 73 73 74 74 73 73 73 74 74 74 74 74 74 74 74 72 71 70 70 70 70 73 74 73 73 74 74 74 75 75 75 76 74 74 74
56 59 61 62 63 63 67 66 66 67 65 64 64 65 66 65 65 66 66 60 62 67 65 57 58 60 61 62 62 62 62 61 61 62 64 65 66 67 68 69 70 70 71 71 72 72 72 73 73 73 73 73 73 73 73 75 73 73 73 74 73 73 73 73 74 73 74 74 73 75 74 73 73 73 73 73 73 72 71 70 68 69 70 70 72 73 73 74 74 74 74 73 73 72 71 70 71
56 55 59 61 63 63 67 67 67 65 65 65 66 67 65 65 59 65 65 66 68 67 67 56 56 59 61 60 61 61 60 60 60 62 64 66 66 67 67 68 69 70 71 71 72 73 73 73 74 73 73 73 73 73 73 73 73 73 73 76 74 75 74 73 73 73 74 74 74 74 75 73 73 73 73 72 72 71 71 71 69 70 71 73 72 75 73 73 74 74 74 73 72 71 68 66 68
55 56 59 60 63 65 68 66 66 66 66 66 66 66 65 66 64 65 64 67 66 63 65 62 60 56 58 59 59 60 60 60 60 61 63 65 66 67 67 67 68 69 70 70 71 72 72 73 74 73 73 73 73 73 73 73 73 73 74 74 73 76 74 74 74 74 74 74 74 75 75 74 73 73 72 71 71 71 71 72 73 71 72 73 74 71 71 71 71 72 72 71 70 70 65 65 67
56 57 58 61 62 65 67 66 66 67 67 67 66 64 66 66 67 66 65 66 67 64 66 67 60 55 55 57 58 59 60 60 59 59 61 63 64 65 66 66 67 68 69 69 71 72 72 73 73 73 73 73 73 73 73 73 73 73 74 74 73 75 74 74 75 74 74 74 74 74 75 75 73 72 72 72 70 70 72 72 73 71 72 72 73 71 71 72 71 70 70 70 69 69 68 68 66
56 57 58 59 62 64 66 64 66 67 66 66 65 63 65 67 67 57 64 68 68 67 68 68 64 59 57 54 57 57 59 59 59 60 60 60 64 65 65 66 67 68 68 68 69 71 72 72 72 73 73 74 74 73 73 73 74 73 74 74 74 74 74 75 75 74 74 74 74 74 75 75 75 74 74 73 69 72 72 72 71 73 72 73 74 73 73 73 72 72 71 69 67 67 67 68 67
57 58 60 61 62 64 65 65 65 67 65 66 66 64 67 67 66 62 64 68 67 67 68 66 65 64 62 53 55 56 57 60 58 59 59 60 62 63 64 64 66 67 67 68 68 70 71 71 72 72 73 74 74 73 74 73 73 73 74 73 73 74 74 74 74 74 76 74 74 74 74 75 76 75 74 74 71 71 71 70 71 73 72 74 74 74 73 74 75 75 73 72 71 68 68 68 69
59 60 58 61 62 61 63 62 63 65 65 66 66 64 63 62 61 66 68 68 68 67 66 66 66 65 57 55 54 56 57 58 57 58 59 60 61 62 63 64 65 65 66 67 68 69 70 70 71 72 73 74 73 73 74 74 73 74 74 73 74 75 74 74 73 73 73 74 73 74 74 75 76 76 75 74 75 71 70 70 71 74 73 73 75 75 74 74 72 71 72 72 71 70 69 70 70
61 62 60 59 58 58 62 66 65 65 65 65 65 51 55 60 62 65 69 67 66 63 64 64 63 65 59 59 56 55 56 57 57 58 58 59 60 62 62 63 65 64 66 67 68 68 70 70 71 72 73 73 73 73 74 74 73 74 74 74 75 74 73 73 74 73 73 73 73 73 74 75 76 75 75 73 72 71 70 70 70 71 72 73 74 76 74 74 71 72 73 72 76 71 69 70 69
54 60 59 56 54 54 61 64 64 62 65 64 64 52 55 58 59 62 67 67 65 61 64 63 64 65 65 57 59 59 63 66 60 59 59 60 61 61 61 62 64 65 67 67 67 68 70 70 71 71 73 72 73 73 74 73 73 74 74 74 74 73 73 73 73 73 73 73 72 72 73 75 75 75 75 73 71 71 70 71 72 71 73 75 73 75 73 73 73 73 74 72 73 72 71 72 70
54 52 49 53 53 53 62 64 64 58 63 64 62 53 55 56 57 65 68 67 66 63 64 63 64 64 64 62 56 59 61 61 60 61 61 63 62 62 63 63 64 66 66 67 68 69 69 71 72 71 72 72 72 73 73 73 73 73 74 75 74 74 74 73 73 73 72 72 72 72 73 74 75 75 74 75 71 71 71 71 72 74 75 75 76 76 74 72 72 72 74 74 72 72 72 71 72
49 47 48 49 50 55 60 62 64 63 64 65 61 52 56 55 59 64 67 66 65 63 64 64 63 63 64 62 61 61 63 65 65 65 65 63 63 63 64 65 65 66 66 67 69 69 70 71 72 71 71 71 71 72 72 72 73 73 73 74 73 73 73 73 72 72 72 71 71 72 73 74 75 74 74 74 72 70 72 73 73 75 76 75 76 74 74 76 72 74 73 75 73 71 72 71 71
43 45 44 45 51 56 56 60 62 64 63 60 63 58 55 58 61 64 66 66 64 62 63 64 63 62 63 64 61 62 63 64 66 67 68 66 66 65 66 67 66 66 67 67 68 68 69 70 70 71 71 71 71 71 71 71 72 72 72 73 74 73 73 73 72 72 72 72 72 72 73 74 75 74 74 75 73 71 72 71 72 74 75 76 75 73 73 74 73 71 71 73 75 71 70 70 70
41 43 42 47 53 57 56 56 59 63 63 59 59 58 56 60 62 64 65 67 64 63 62 62 62 61 61 63 63 65 63 64 67 68 69 69 70 68 67 67 66 66 66 67 67 67 68 68 70 72 71 71 70 70 71 71 71 72 72 73 72 72 72 73 72 72 72 72 71 71 72 74 76 73 74 75 74 74 73 73 73 75 76 76 74 72 72 75 75 73 72 73 73 73 71 71 70
40 42 40 46 53 55 55 57 61 60 59 59 57 55 55 61 61 63 65 66 63 63 62 62 61 61 61 61 61 62 66 64 67 69 68 71 68 69 67 67 66 66 66 67 68 67 67 68 70 72 71 71 71 71 71 71 71 71 71 72 72 72 71 72 72 71 72 71 71 71 71 73 74 74 73 74 74 74 72 72 73 74 76 75 74 71 70 71 70 72 73 74 73 72 73 73 72
30 40 38 44 51 52 56 57 61 60 58 57 56 55 55 59 61 62 64 64 62 61 60 61 62 61 61 60 59 60 63 65 67 68 69 70 69 70 68 67 67 68 67 67 67 66 67 68 70 70 70 71 71 71 71 70 69 70 69 71 70 71 70 70 71 71 71 71 71 70 71 74 74 75 74 74 74 77 73 72 74 75 75 75 74 73 73 72 72 73 75 76 74 72 72 72 72
17 26 38 40 46 48 53 55 59 59 55 53 56 55 56 58 60 61 63 62 60 61 60 61 61 61 62 61 61 60 63 66 66 66 67 70 68 70 69 68 70 68 68 67 67 67 69 69 69 69 70 71 71 71 71 70 69 70 69 70 71 70 71 70 69 71 70 70 71 70 71 73 73 74 75 73 74 74 75 74 75 74 75 74 74 77 75 77 74 74 74 73 74 73 71 73 71
12 25 38 42 46 53 54 56 58 58 54 50 54 53 55 57 58 61 61 62 62 62 60 61 60 61 62 61 61 62 63 65 65 65 66 66 66 68 69 69 68 68 68 68 69 70 70 70 69 70 71 71 71 72 71 70 70 71 69 70 70 70 71 71 70 70 71 69 70 70 71 73 74 73 74 75 74 74 75 74 75 75 75 75 75 74 74 74 74 74 74 73 72 72 73 72 70
26 39 39 41 46 47 46 52 55 57 53 50 53 53 55 56 59 60 62 61 62 63 63 63 62 60 61 60 60 61 61 64 64 64 64 64 66 67 68 69 68 68 69 69 70 70 70 71 70 71 71 71 72 72 73 71 71 71 71 71 70 71 70 72 72 73 71 71 71 71 72 73 73 72 74 74 73 74 74 74 75 75 74 75 75 73 73 73 73 73 74 74 71 69 69 70 73
10 38 39 40 46 44 44 49 53 56 56 56 52 50 51 53 54 55 58 63 62 63 64 64 64 65 65 65 64 63 61 63 64 64 64 64 65 65 67 68 68 68 68 68 69 70 70 70 70 71 71 71 72 73 73 72 73 71 72 73 72 72 72 71 71 70 71 71 72 73 72 72 73 72 73 74 75 73 73 74 74 75 74 75 76 75 74 74 73 74 74 73 72 70 68 70 72
5 14 40 42 45 43 45 50 51 50 49 52 50 43 44 50 54 54 57 59 59 62 62 64 63 64 64 63 63 65 66 66 63 63 63 64 65 65 67 68 68 69 69 69 70 71 71 71 71 71 71 71 72 72 73 72 72 71 71 70 70 69 69 70 69 69 69 69 70 73 72 72 73 72 72 73 73 74 73 75 74 75 74 75 77 75 75 74 74 74 73 73 72 72 70 70 70
3 3 31 43 45 45 48 50 49 45 45 49 49 41 40 49 51 53 57 59 57 62 63 63 64 64 65 65 65 64 65 66 67 64 63 64 66 66 68 69 69 69 69 69 70 71 71 71 71 71 71 72 72 73 73 73 71 70 70 70 70 69 68 69 69 69 68 68 70 71 72 71 73 71 71 72 72 74 74 75 75 74 74 73 76 75 74 74 73 72 72 71 71 72 73 68 69
0 4 27 45 44 44 48 49 47 45 46 52 48 48 43 42 47 54 58 58 60 61 61 62 63 64 65 65 65 64 65 67 67 66 66 65 68 67 68 69 70 71 70 69 71 71 71 71 72 72 72 73 72 73 72 73 71 70 70 70 71 70 69 68 69 69 69 70 69 70 71 70 71 71 71 71 71 72 74 75 75 74 73 73 74 75 74 74 74 73 73 71 72 74 72 69 69
-2 3 9 42 43 45 48 47 45 40 45 45 47 48 41 45 49 56 57 56 58 60 60 60 62 63 64 64 64 65 64 67 67 66 65 65 66 68 68 69 71 73 73 69 69 71 71 71 72 72 72 72 72 73 73 72 72 71 70 70 70 71 69 69 70 71 69 71 68 69 70 70 70 71 71 70 70 72 75 74 75 74 74 73 76 75 74 73 73 71 72 74 73 74 72 72 71
0 3 14 16 38 45 47 45 43 42 40 41 45 42 40 42 49 53 57 55 55 57 59 59 62 62 63 64 65 65 66 66 66 67 68 68 70 70 70 70 70 70 72 73 72 70 71 72 72 71 72 72 72 72 73 72 72 72 70 70 70 70 71 71 70 69 70 70 68 69 70 70 70 70 70 70 70 73 74 75 75 74 74 74 76 74 74 73 73 72 72 73 73 72 73 74 73
9 13 9 9 20 43 44 42 31 31 31 35 44 42 42 40 46 51 54 54 55 57 58 60 62 61 62 63 64 63 66 66 67 67 67 69 69 70 71 70 70 71 72 72 70 71 70 72 72 71 71 71 72 72 72 71 71 72 71 70 70 70 70 70 70 69 70 70 69 69 69 70 70 70 70 70 69 72 74 75 74 74 74 76 76 74 73 72 72 74 74 74 75 73 73 73 73
6 11 12 10 20 28 31 32 35 16 22 31 40 40 42 39 44 48 55 55 58 57 57 59 60 60 62 62 63 64 65 67 67 67 67 67 67 68 70 69 70 71 72 70 70 72 70 72 73 72 72 71 72 73 72 71 71 71 71 71 70 70 70 71 70 69 70 69 69 69 69 69 69 69 69 69 69 70 73 74 75 74 75 74 73 73 72 71 71 71 72 73 73 73 73 74 73
10 16 20 11 17 20 18 23 18 16 17 34 41 43 42 46 46 48 53 53 58 59 59 59 60 61 63 63 64 64 63 64 65 66 66 66 66 66 68 69 71 70 70 71 72 71 71 73 73 73 73 72 72 72 72 72 71 71 71 71 71 71 70 72 71 71 71 70 69 69 69 69 70 69 69 68 68 68 72 73 73 73 73 73 73 72 72 71 72 71 71 72 72 73 73 73 73
7 11 20 14 14 16 16 26 26 25 36 46 46 48 46 48 51 53 51 55 58 59 60 61 61 62 62 62 64 64 64 64 64 65 65 65 66 67 68 70 70 70 70 71 72 71 72 72 73 73 73 73 73 72 72 72 72 72 72 71 71 72 71 71 71 71 71 70 69 69 69 69 69 69 68 68 67 67 70 72 73 72 72 72 73 72 72 72 73 72 72 72 71 71 73 73 73
9 10 7 12 22 20 17 22 17 22 33 43 41 42 44 46 48 54 55 57 59 59 59 60 60 61 61 63 64 64 64 66 67 65 65 65 66 67 68 69 69 69 70 71 71 71 72 70 71 72 72 72 73 72 72 72 72 72 72 72 71 71 71 72 71 71 70 70 69 68 69 69 69 69 68 68 68 68 67 71 71 71 71 71 72 72 72 72 74 75 75 74 74 73 74 74 74
15 11 15 15 17 30 14 27 25 28 35 37 39 40 46 48 52 57 56 56 57 59 58 59 59 59 61 63 63 64 65 66 66 66 65 65 66 67 68 68 68 69 69 69 70 71 71 71 71 71 71 71 73 73 72 72 72 72 72 71 71 71 72 72 72 72 70 70 69 69 69 69 69 69 69 68 67 68 66 68 71 71 70 70 70 71 72 71 72 71 71 72 71 73 72 71 71
21 15 20 17 21 21 29 34 35 37 38 37 41 45 48 50 51 52 53 53 54 56 57 58 59 60 62 62 64 64 65 65 66 66 67 66 67 67 68 67 68 69 70 69 70 70 70 71 71 71 71 72 72 74 73 72 72 71 71 71 71 71 72 72 71 71 70 70 70 70 69 69 69 69 69 69 67 67 67 66 67 68 69 69 69 71 71 71 71 71 71 71 72 73 74 73 74
16 19 23 28 23 25 22 16 29 33 32 36 42 44 44 45 44 51 52 52 53 54 55 57 57 59 60 61 62 64 64 65 66 67 67 68 67 68 68 68 68 68 70 70 70 70 70 71 71 72 72 72 72 71 71 71 70 71 71 71 71 71 71 71 71 70 70 70 70 70 70 69 69 68 68 68 68 67 67 70 67 67 67 68 68 69 71 71 72 72 72 72 72 73 73 74 75
11 15 23 20 26 22 33 24 21 29 30 31 41 44 45 45 45 50 50 51 51 52 54 55 57 58 59 60 61 62 64 65 66 67 67 68 69 69 68 67 67 69 72 71 71 71 70 70 70 72 72 72 73 73 71 71 71 70 71 71 71 71 71 71 71 71 70 70 69 69 69 69 68 68 69 68 67 66 66 66 67 67 68 68 68 68 70 70 70 70 72 73 74 74 74 73 73
18 17 17 28 33 34 28 26 31 30 31 31 34 42 40 45 46 49 50 51 51 52 53 54 56 58 60 60 61 62 63 63 64 64 65 66 67 69 69 68 68 69 69 70 71 72 72 72 72 72 72 72 71 72 72 71 72 72 71 71 71 71 71 70 70 70 70 69 69 69 68 68 67 68 67 67 66 66 65 65 66 66 66 67 68 68 68 69 70 69 70 72 72 74 73 73 73
16 13 17 21 30 34 29 36 31 33 34 31 31 33 36 41 48 50 51 52 52 53 52 54 56 59 60 61 62 62 62 62 63 64 63 62 62 64 66 68 69 70 71 70 69 70 70 71 72 72 71 71 72 72 73 72 71 72 72 71 70 70 70 70 69 69 69 69 69 69 68 68 67 66 66 66 66 65 64 64 66 67 66 67 68 68 68 69 69 70 71 71 72 73 73 73 74
16 18 24 21 23 22 23 26 36 37 33 30 30 30 39 47 49 51 51 52 54 54 53 54 56 57 59 60 61 61 62 62 63 62 63 63 64 65 66 67 68 68 69 69 70 70 70 70 69 71 71 71 71 71 72 72 71 71 71 71 70 70 70 69 69 68 69 68 68 68 67 67 66 66 65 65 66 65 64 63 63 64 66 66 67 68 67 69 70 70 70 72 72 73 73 72 73